Time,TemperatureF,DewpointF,PressureIn,WindDirection,WindDirectionDegrees,WindSpeedMPH,WindSpeedGustMPH,Humidity,HourlyPrecipIn,Conditions,Clouds,dailyrainin,SoftwareType,DateUTC
2013-04-17 00:01:00,28.9,21.0,30.30,WNW,292,0.0,0.0,72,0.00,CLR,CLR,0.00,WeatherDisplay:10.37,2013-04-17 05:01:00,
2013-04-17 00:07:00,28.8,20.9,30.30,WNW,292,0.0,0.0,72,0.00,CLR,CLR,0.00,WeatherDisplay:10.37,2013-04-17 05:07:00,
2013-04-17 00:12:00,28.6,20.7,30.30,WNW,292,0.0,0.0,72,0.00,CLR,CLR,0.00,WeatherDisplay:10.37,2013-04-17 05:12:00,
2013-04-17 00:17:00,28.6,21.0,30.30,WNW,292,0.0,0.0,73,0.00,CLR,CLR,0.00,WeatherDisplay:10.37,2013-04-17 05:17:00,
2013-04-17 00:22:00,28.2,20.7,30.31,WNW,292,0.0,0.0,73,0.00,CLR,CLR,0.00,WeatherDisplay:10.37,2013-04-17 05:22:00,
2013-04-17 00:28:00,28.2,20.7,30.31,WNW,292,0.0,0.0,73,0.00,CLR,CLR,0.00,WeatherDisplay:10.37,2013-04-17 05:28:00,
2013-04-17 00:33:00,28.0,20.5,30.31,NW,315,0.0,0.0,73,0.00,CLR,CLR,0.00,WeatherDisplay:10.37,2013-04-17 05:33:00,
2013-04-17 00:38:00,27.9,20.6,30.31,NNW,338,0.0,0.0,74,0.00,CLR,CLR,0.00,WeatherDisplay:10.37,2013-04-17 05:38:00,
2013-04-17 00:43:00,27.7,20.5,30.30,North,0,0.4,1.2,74,0.00,CLR,CLR,0.00,WeatherDisplay:10.37,2013-04-17 05:43:00,
2013-04-17 00:48:00,27.7,20.8,30.30,North,0,0.0,0.0,75,0.00,CLR,CLR,0.00,WeatherDisplay:10.37,2013-04-17 05:48:00,
2013-04-17 00:53:00,27.7,20.8,30.30,NNE,22,0.0,0.0,75,0.00,CLR,CLR,0.00,WeatherDisplay:10.37,2013-04-17 05:53:00,
2013-04-17 00:58:00,27.5,20.6,30.30,NW,315,0.0,0.0,75,0.00,CLR,CLR,0.00,WeatherDisplay:10.37,2013-04-17 05:58:00,
2013-04-17 01:03:00,27.3,20.4,30.31,WNW,292,0.0,0.0,75,0.00,CLR,CLR,0.00,WeatherDisplay:10.37,2013-04-17 06:03:00,
2013-04-17 01:09:00,27.1,20.6,30.31,WNW,292,0.2,0.0,76,0.00,CLR,CLR,0.00,WeatherDisplay:10.37,2013-04-17 06:09:00,
2013-04-17 01:14:00,27.0,20.4,30.31,WNW,292,0.0,0.0,76,0.00,CLR,CLR,0.00,WeatherDisplay:10.37,2013-04-17 06:14:00,
2013-04-17 01:19:00,27.0,20.7,30.31,West,270,1.0,1.2,77,0.00,CLR,CLR,0.00,WeatherDisplay:10.37,2013-04-17 06:19:00,
2013-04-17 01:24:00,27.0,20.7,30.32,WNW,292,0.0,0.0,77,0.00,CLR,CLR,0.00,WeatherDisplay:10.37,2013-04-17 06:24:00,
2013-04-17 01:29:00,26.8,20.5,30.31,NW,315,0.0,0.0,77,0.00,CLR,CLR,0.00,WeatherDisplay:10.37,2013-04-17 06:29:00,
2013-04-17 01:34:00,27.0,20.7,30.30,NNW,338,2.2,3.5,77,0.00,CLR,CLR,0.00,WeatherDisplay:10.37,2013-04-17 06:34:00,
2013-04-17 01:39:00,27.1,21.2,30.31,West,270,0.5,2.3,78,0.00,CLR,CLR,0.00,WeatherDisplay:10.37,2013-04-17 06:39:00,
2013-04-17 01:44:00,27.3,21.4,30.30,North,0,0.0,0.0,78,0.00,CLR,CLR,0.00,WeatherDisplay:10.37,2013-04-17 06:44:00,
2013-04-17 01:50:00,27.5,21.5,30.31,West,270,0.0,0.0,78,0.00,CLR,CLR,0.00,WeatherDisplay:10.37,2013-04-17 06:50:00,
2013-04-17 01:55:00,27.7,21.7,30.31,West,270,0.0,0.0,78,0.00,CLR,CLR,0.00,WeatherDisplay:10.37,2013-04-17 06:55:00,
2013-04-17 02:00:00,27.7,21.7,30.32,NW,315,0.0,0.0,78,0.00,CLR,CLR,0.00,WeatherDisplay:10.37,2013-04-17 07:00:00,
2013-04-17 02:05:00,27.7,21.7,30.32,West,270,0.0,0.0,78,0.00,CLR,CLR,0.00,WeatherDisplay:10.37,2013-04-17 07:05:00,
2013-04-17 02:10:00,27.7,21.4,30.31,North,0,0.0,0.0,77,0.00,CLR,CLR,0.00,WeatherDisplay:10.37,2013-04-17 07:10:00,
2013-04-17 02:15:00,28.0,21.8,30.31,NNW,338,0.8,1.2,77,0.00,CLR,CLR,0.00,WeatherDisplay:10.37,2013-04-17 07:15:00,
2013-04-17 02:21:00,28.0,22.1,30.31,North,0,0.0,1.2,78,0.00,CLR,CLR,0.00,WeatherDisplay:10.37,2013-04-17 07:21:00,
2013-04-17 02:26:00,28.2,22.2,30.31,NW,315,0.0,0.0,78,0.00,CLR,CLR,0.00,WeatherDisplay:10.37,2013-04-17 07:26:00,
2013-04-17 02:32:00,28.6,22.6,30.31,NW,315,0.0,0.0,78,0.00,CLR,CLR,0.00,WeatherDisplay:10.37,2013-04-17 07:32:00,
2013-04-17 02:37:00,28.8,22.8,30.30,NW,315,1.6,2.3,78,0.00,CLR,CLR,0.00,WeatherDisplay:10.37,2013-04-17 07:37:00,
2013-04-17 02:42:00,28.9,22.9,30.31,WNW,292,0.0,0.0,78,0.00,CLR,CLR,0.00,WeatherDisplay:10.37,2013-04-17 07:42:00,
2013-04-17 02:47:00,29.1,23.1,30.31,WNW,292,0.3,2.3,78,0.00,CLR,CLR,0.00,WeatherDisplay:10.37,2013-04-17 07:47:00,
2013-04-17 02:52:00,29.3,23.3,30.31,WNW,292,0.6,1.2,78,0.00,CLR,CLR,0.00,WeatherDisplay:10.37,2013-04-17 07:52:00,
2013-04-17 02:58:00,29.3,23.0,30.31,WNW,292,0.0,0.0,77,0.00,CLR,CLR,0.00,WeatherDisplay:10.37,2013-04-17 07:58:00,
2013-04-17 03:03:00,29.5,23.2,30.32,West,270,0.0,0.0,77,0.00,CLR,CLR,0.00,WeatherDisplay:10.37,2013-04-17 08:03:00,
2013-04-17 03:08:00,29.8,23.8,30.31,West,270,0.0,0.0,78,0.00,CLR,CLR,0.00,WeatherDisplay:10.37,2013-04-17 08:08:00,
2013-04-17 03:13:00,29.8,23.8,30.32,West,270,0.0,0.0,78,0.00,CLR,CLR,0.00,WeatherDisplay:10.37,2013-04-17 08:13:00,
2013-04-17 03:18:00,30.0,24.0,30.31,NW,315,0.0,0.0,78,0.00,CLR,CLR,0.00,WeatherDisplay:10.37,2013-04-17 08:18:00,
2013-04-17 03:24:00,30.0,24.0,30.31,NW,315,0.0,0.0,78,0.00,CLR,CLR,0.00,WeatherDisplay:10.37,2013-04-17 08:24:00,
2013-04-17 03:29:00,30.2,24.2,30.31,NNW,338,0.0,0.0,78,0.00,CLR,CLR,0.00,WeatherDisplay:10.37,2013-04-17 08:29:00,
2013-04-17 03:34:00,30.4,24.0,30.31,NW,315,1.0,2.3,77,0.00,CLR,CLR,0.00,WeatherDisplay:10.37,2013-04-17 08:34:00,
2013-04-17 03:39:00,30.6,24.2,30.31,WNW,292,0.0,0.0,77,0.00,CLR,CLR,0.00,WeatherDisplay:10.37,2013-04-17 08:39:00,
2013-04-17 03:45:00,30.7,24.7,30.31,WNW,292,0.0,0.0,78,0.00,CLR,CLR,0.00,WeatherDisplay:10.37,2013-04-17 08:45:00,
2013-04-17 03:50:00,30.7,24.7,30.32,NW,315,0.0,0.0,78,0.00,CLR,CLR,0.00,WeatherDisplay:10.37,2013-04-17 08:50:00,
2013-04-17 03:55:00,30.9,24.6,30.31,NNW,338,0.0,0.0,77,0.00,CLR,CLR,0.00,WeatherDisplay:10.37,2013-04-17 08:55:00,
2013-04-17 04:00:00,31.1,24.7,30.31,NW,315,0.3,2.5,77,0.00,CLR,CLR,0.00,WeatherDisplay:10.37,2013-04-17 09:00:00,
2013-04-17 04:05:00,31.1,24.7,30.31,NW,315,1.6,2.3,77,0.00,CLR,CLR,0.00,WeatherDisplay:10.37,2013-04-17 09:05:00,
2013-04-17 04:10:00,31.3,24.9,30.31,NW,315,0.0,0.0,77,0.00,CLR,CLR,0.00,WeatherDisplay:10.37,2013-04-17 09:10:00,
2013-04-17 04:16:00,31.3,24.9,30.31,North,0,0.7,2.3,77,0.00,CLR,CLR,0.00,WeatherDisplay:10.37,2013-04-17 09:16:00,
2013-04-17 04:21:00,31.3,24.9,30.30,NNW,338,1.3,2.3,77,0.00,CLR,CLR,0.00,WeatherDisplay:10.37,2013-04-17 09:21:00,
2013-04-17 04:26:00,31.3,24.9,30.29,NNE,22,3.5,3.5,77,0.00,CLR,CLR,0.00,WeatherDisplay:10.37,2013-04-17 09:26:00,
2013-04-17 04:31:00,31.3,24.9,30.28,NNE,22,3.8,4.6,77,0.00,CLR,CLR,0.00,WeatherDisplay:10.37,2013-04-17 09:31:00,
2013-04-17 04:36:00,31.3,24.9,30.28,NNE,22,2.6,4.7,77,0.00,CLR,CLR,0.00,WeatherDisplay:10.37,2013-04-17 09:36:00,
2013-04-17 04:42:00,31.6,25.6,30.28,North,0,2.4,4.6,78,0.00,CLR,CLR,0.00,WeatherDisplay:10.37,2013-04-17 09:42:00,
2013-04-17 04:47:00,31.8,25.4,30.28,NE,45,2.3,2.3,77,0.00,CLR,CLR,0.00,WeatherDisplay:10.37,2013-04-17 09:47:00,
2013-04-17 04:52:00,32.2,25.8,30.28,NNE,22,1.2,3.5,77,0.00,CLR,CLR,0.00,WeatherDisplay:10.37,2013-04-17 09:52:00,
2013-04-17 04:57:00,32.5,25.8,30.28,ENE,68,0.7,2.3,76,0.00,CLR,CLR,0.00,WeatherDisplay:10.37,2013-04-17 09:57:00,
2013-04-17 05:02:00,32.7,26.0,30.28,NNE,22,2.4,2.9,76,0.00,CLR,CLR,0.00,WeatherDisplay:10.37,2013-04-17 10:02:00,
2013-04-17 05:07:00,33.3,26.5,30.27,NNE,22,3.1,4.6,76,0.00,CLR,CLR,0.00,WeatherDisplay:10.37,2013-04-17 10:07:00,
2013-04-17 05:12:00,33.4,26.4,30.27,ENE,68,2.8,5.8,75,0.00,CLR,CLR,0.00,WeatherDisplay:10.37,2013-04-17 10:12:00,
2013-04-17 05:18:00,33.6,26.5,30.27,NNE,22,3.0,3.8,75,0.00,CLR,CLR,0.00,WeatherDisplay:10.37,2013-04-17 10:18:00,
2013-04-17 05:23:00,33.8,26.4,30.27,East,90,5.1,6.9,74,0.00,CLR,CLR,0.00,WeatherDisplay:10.37,2013-04-17 10:23:00,
2013-04-17 05:28:00,34.0,26.6,30.26,North,0,1.5,3.5,74,0.00,CLR,CLR,0.00,WeatherDisplay:10.37,2013-04-17 10:28:00,
2013-04-17 05:33:00,34.2,26.4,30.26,East,90,1.6,4.6,73,0.00,CLR,CLR,0.00,WeatherDisplay:10.37,2013-04-17 10:33:00,
2013-04-17 05:38:00,34.2,26.4,30.26,ENE,68,2.9,5.8,73,0.00,CLR,CLR,0.00,WeatherDisplay:10.37,2013-04-17 10:38:00,
2013-04-17 05:44:00,34.2,26.4,30.25,East,90,2.2,4.6,73,0.00,CLR,CLR,0.00,WeatherDisplay:10.37,2013-04-17 10:44:00,
2013-04-17 05:49:00,34.3,26.6,30.26,NNE,22,1.7,2.3,73,0.00,CLR,CLR,0.00,WeatherDisplay:10.37,2013-04-17 10:49:00,
2013-04-17 05:54:00,34.3,26.2,30.26,NE,45,3.2,3.5,72,0.00,CLR,CLR,0.00,WeatherDisplay:10.37,2013-04-17 10:54:00,
2013-04-17 05:59:00,34.3,26.2,30.25,NNE,22,2.0,3.5,72,0.00,CLR,CLR,0.00,WeatherDisplay:10.37,2013-04-17 10:59:00,
2013-04-17 06:04:00,34.3,26.2,30.25,NNE,22,2.2,3.5,72,0.00,CLR,CLR,0.00,WeatherDisplay:10.37,2013-04-17 11:04:00,
2013-04-17 06:10:00,34.3,26.2,30.24,North,0,0.5,2.3,72,0.00,CLR,CLR,0.00,WeatherDisplay:10.37,2013-04-17 11:10:00,
2013-04-17 06:15:00,34.3,26.2,30.24,NE,45,3.2,4.6,72,0.00,CLR,CLR,0.00,WeatherDisplay:10.37,2013-04-17 11:15:00,
2013-04-17 06:20:00,34.3,26.2,30.23,NE,45,3.3,8.0,72,0.00,CLR,CLR,0.00,WeatherDisplay:10.37,2013-04-17 11:20:00,
2013-04-17 06:25:00,34.3,26.2,30.25,NE,45,2.1,5.8,72,0.00,CLR,CLR,0.00,WeatherDisplay:10.37,2013-04-17 11:25:00,
2013-04-17 06:30:00,34.3,26.2,30.25,ENE,68,2.1,3.5,72,0.00,CLR,CLR,0.00,WeatherDisplay:10.37,2013-04-17 11:30:00,
2013-04-17 06:36:00,34.3,26.2,30.25,ENE,68,3.0,6.9,72,0.00,CLR,CLR,0.00,WeatherDisplay:10.37,2013-04-17 11:36:00,
2013-04-17 06:41:00,34.3,25.9,30.25,ENE,68,5.0,9.2,71,0.00,CLR,CLR,0.00,WeatherDisplay:10.37,2013-04-17 11:41:00,
2013-04-17 06:46:00,34.3,26.2,30.25,ENE,68,3.6,4.6,72,0.00,CLR,CLR,0.00,WeatherDisplay:10.37,2013-04-17 11:46:00,
2013-04-17 06:51:00,34.3,26.2,30.24,NE,45,4.4,8.1,72,0.00,CLR,CLR,0.00,WeatherDisplay:10.37,2013-04-17 11:51:00,
2013-04-17 06:56:00,34.5,26.1,30.25,ENE,68,4.0,5.8,71,0.00,CLR,CLR,0.00,WeatherDisplay:10.37,2013-04-17 11:56:00,
2013-04-17 07:01:00,34.5,26.1,30.25,ENE,68,5.5,8.1,71,0.00,CLR,CLR,0.00,WeatherDisplay:10.37,2013-04-17 12:01:00,
2013-04-17 07:06:00,34.5,26.1,30.25,NNE,22,2.4,5.8,71,0.00,CLR,CLR,0.00,WeatherDisplay:10.37,2013-04-17 12:06:00,
2013-04-17 07:12:00,34.7,26.3,30.26,East,90,3.2,4.6,71,0.00,CLR,CLR,0.00,WeatherDisplay:10.37,2013-04-17 12:12:00,
2013-04-17 07:17:00,34.9,26.4,30.25,East,90,3.4,4.6,71,0.00,CLR,CLR,0.00,WeatherDisplay:10.37,2013-04-17 12:17:00,
2013-04-17 07:22:00,34.9,26.4,30.27,SSE,158,3.1,5.8,71,0.00,CLR,CLR,0.00,WeatherDisplay:10.37,2013-04-17 12:22:00,
2013-04-17 07:27:00,34.9,26.4,30.29,SE,135,3.6,4.6,71,0.00,CLR,CLR,0.00,WeatherDisplay:10.37,2013-04-17 12:27:00,
2013-04-17 07:32:00,35.2,26.8,30.30,ENE,68,2.5,5.4,71,0.00,CLR,CLR,0.00,WeatherDisplay:10.37,2013-04-17 12:32:00,
2013-04-17 07:37:00,35.2,26.4,30.29,East,90,6.2,8.1,70,0.00,CLR,CLR,0.00,WeatherDisplay:10.37,2013-04-17 12:37:00,
2013-04-17 07:43:00,35.4,26.6,30.29,ENE,68,4.3,8.1,70,0.00,CLR,CLR,0.00,WeatherDisplay:10.37,2013-04-17 12:43:00,
2013-04-17 07:48:00,35.8,26.9,30.28,NNE,22,5.2,8.1,70,0.00,CLR,CLR,0.00,WeatherDisplay:10.37,2013-04-17 12:48:00,
2013-04-17 07:53:00,35.8,26.9,30.28,SSE,158,5.3,6.9,70,0.00,CLR,CLR,0.00,WeatherDisplay:10.37,2013-04-17 12:53:00,
2013-04-17 07:58:00,36.1,26.9,30.28,ENE,68,4.1,5.8,69,0.00,CLR,CLR,0.00,WeatherDisplay:10.37,2013-04-17 12:58:00,
2013-04-17 08:03:00,36.5,27.3,30.27,ENE,68,6.1,8.1,69,0.00,CLR,CLR,0.00,WeatherDisplay:10.37,2013-04-17 13:03:00,
2013-04-17 08:08:00,36.7,27.1,30.26,East,90,4.8,9.2,68,0.00,CLR,CLR,0.00,WeatherDisplay:10.37,2013-04-17 13:08:00,
2013-04-17 08:13:00,36.9,27.3,30.26,NE,45,6.2,8.1,68,0.00,CLR,CLR,0.00,WeatherDisplay:10.37,2013-04-17 13:13:00,
2013-04-17 08:18:00,37.2,27.6,30.26,ESE,112,6.5,6.9,68,0.00,CLR,CLR,0.00,WeatherDisplay:10.37,2013-04-17 13:18:00,
2013-04-17 08:23:00,37.2,27.3,30.26,East,90,7.3,9.2,67,0.00,CLR,CLR,0.00,WeatherDisplay:10.37,2013-04-17 13:23:00,
2013-04-17 08:29:00,37.4,27.1,30.27,ESE,112,7.1,9.2,66,0.00,CLR,CLR,0.00,WeatherDisplay:10.37,2013-04-17 13:29:00,
2013-04-17 08:34:00,37.6,27.2,30.27,East,90,6.9,10.4,66,0.00,CLR,CLR,0.00,WeatherDisplay:10.37,2013-04-17 13:34:00,
2013-04-17 08:39:00,37.6,27.2,30.27,ESE,112,5.6,9.6,66,0.00,CLR,CLR,0.00,WeatherDisplay:10.37,2013-04-17 13:39:00,
2013-04-17 08:44:00,37.6,27.2,30.28,SE,135,7.5,9.2,66,0.00,CLR,CLR,0.00,WeatherDisplay:10.37,2013-04-17 13:44:00,
2013-04-17 08:50:00,37.8,27.4,30.28,ENE,68,7.9,9.2,66,0.00,CLR,CLR,0.00,WeatherDisplay:10.37,2013-04-17 13:50:00,
2013-04-17 08:55:00,37.6,27.2,30.28,ESE,112,6.8,10.7,66,0.00,CLR,CLR,0.00,WeatherDisplay:10.37,2013-04-17 13:55:00,
2013-04-17 09:00:00,37.2,26.9,30.28,East,90,8.8,10.4,66,0.00,CLR,CLR,0.00,WeatherDisplay:10.37,2013-04-17 14:00:00,
2013-04-17 09:05:00,37.2,26.9,30.28,ENE,68,7.4,9.2,66,0.00,CLR,CLR,0.00,WeatherDisplay:10.37,2013-04-17 14:05:00,
2013-04-17 09:10:00,37.6,27.2,30.29,East,90,6.8,10.4,66,0.00,CLR,CLR,0.00,WeatherDisplay:10.37,2013-04-17 14:10:00,
2013-04-17 09:15:00,37.8,27.4,30.28,East,90,9.9,11.5,66,0.00,CLR,CLR,0.00,WeatherDisplay:10.37,2013-04-17 14:15:00,
2013-04-17 09:20:00,37.8,27.4,30.28,ESE,112,7.4,9.2,66,0.00,CLR,CLR,0.00,WeatherDisplay:10.37,2013-04-17 14:20:00,
2013-04-17 09:25:00,38.1,27.8,30.28,East,90,7.0,10.4,66,0.00,CLR,CLR,0.00,WeatherDisplay:10.37,2013-04-17 14:25:00,
2013-04-17 09:30:00,38.8,28.4,30.26,ENE,68,7.2,11.5,66,0.00,CLR,CLR,0.00,WeatherDisplay:10.37,2013-04-17 14:30:00,
2013-04-17 09:35:00,39.4,28.6,30.26,East,90,5.7,11.5,65,0.00,CLR,CLR,0.00,WeatherDisplay:10.37,2013-04-17 14:35:00,
2013-04-17 09:40:00,39.9,28.7,30.26,ESE,112,8.1,8.1,64,0.00,CLR,CLR,0.00,WeatherDisplay:10.37,2013-04-17 14:40:00,
2013-04-17 09:45:00,40.5,28.8,30.26,East,90,8.9,11.4,63,0.00,CLR,CLR,0.00,WeatherDisplay:10.37,2013-04-17 14:45:00,
2013-04-17 09:51:00,41.0,29.0,30.25,ENE,68,7.4,10.4,62,0.00,CLR,CLR,0.00,WeatherDisplay:10.37,2013-04-17 14:51:00,
2013-04-17 09:56:00,41.5,29.5,30.25,East,90,8.1,10.4,62,0.00,CLR,CLR,0.00,WeatherDisplay:10.37,2013-04-17 14:56:00,
2013-04-17 10:01:00,41.5,29.1,30.24,ENE,68,6.4,10.5,61,0.00,CLR,CLR,0.00,WeatherDisplay:10.37,2013-04-17 15:01:00,
2013-04-17 10:06:00,41.2,28.7,30.24,ESE,112,6.5,9.2,61,0.00,CLR,CLR,0.00,WeatherDisplay:10.37,2013-04-17 15:06:00,
2013-04-17 10:11:00,40.8,28.4,30.24,East,90,5.5,8.1,61,0.00,CLR,CLR,0.00,WeatherDisplay:10.37,2013-04-17 15:11:00,
2013-04-17 10:16:00,40.3,27.9,30.24,East,90,4.5,8.1,61,0.00,CLR,CLR,0.00,WeatherDisplay:10.37,2013-04-17 15:16:00,
2013-04-17 10:22:00,39.9,27.9,30.23,East,90,6.2,8.9,62,0.00,CLR,CLR,0.00,WeatherDisplay:10.37,2013-04-17 15:22:00,
2013-04-17 10:27:00,39.7,27.8,30.23,ENE,68,6.0,10.1,62,0.00,CLR,CLR,0.00,WeatherDisplay:10.37,2013-04-17 15:27:00,
2013-04-17 10:32:00,39.4,27.8,30.23,NE,45,6.0,13.8,63,0.00,CLR,CLR,0.00,WeatherDisplay:10.37,2013-04-17 15:32:00,
2013-04-17 10:37:00,39.4,27.8,30.23,ENE,68,5.8,10.4,63,0.00,CLR,CLR,0.00,WeatherDisplay:10.37,2013-04-17 15:37:00,
2013-04-17 10:42:00,39.0,27.5,30.23,East,90,7.2,9.2,63,0.00,CLR,CLR,0.00,WeatherDisplay:10.37,2013-04-17 15:42:00,
2013-04-17 10:47:00,39.0,27.5,30.23,SE,135,6.9,8.1,63,0.00,CLR,CLR,0.00,WeatherDisplay:10.37,2013-04-17 15:47:00,
2013-04-17 10:52:00,39.0,27.9,30.23,East,90,7.4,7.4,64,0.00,CLR,CLR,0.00,WeatherDisplay:10.37,2013-04-17 15:52:00,
2013-04-17 10:57:00,38.8,27.7,30.23,East,90,6.1,8.1,64,0.00,CLR,CLR,0.00,WeatherDisplay:10.37,2013-04-17 15:57:00,
2013-04-17 11:03:00,38.8,27.7,30.23,East,90,4.4,9.2,64,0.00,CLR,CLR,0.00,WeatherDisplay:10.37,2013-04-17 16:03:00,
2013-04-17 11:08:00,38.8,27.7,30.23,ESE,112,9.5,11.5,64,0.00,CLR,CLR,0.00,WeatherDisplay:10.37,2013-04-17 16:08:00,
2013-04-17 11:13:00,38.8,28.1,30.23,ESE,112,6.0,8.1,65,0.00,CLR,CLR,0.00,WeatherDisplay:10.37,2013-04-17 16:13:00,
2013-04-17 11:18:00,38.8,28.1,30.23,East,90,5.4,9.2,65,0.00,CLR,CLR,0.00,WeatherDisplay:10.37,2013-04-17 16:18:00,
2013-04-17 11:23:00,39.0,28.2,30.24,ESE,112,3.7,5.8,65,0.00,CLR,CLR,0.00,WeatherDisplay:10.37,2013-04-17 16:23:00,
2013-04-17 11:28:00,39.0,27.9,30.24,ENE,68,7.7,11.6,64,0.00,CLR,CLR,0.00,WeatherDisplay:10.37,2013-04-17 16:28:00,
2013-04-17 11:34:00,39.0,27.9,30.23,ESE,112,9.0,9.2,64,0.00,CLR,CLR,0.00,WeatherDisplay:10.37,2013-04-17 16:34:00,
2013-04-17 11:39:00,39.2,28.0,30.23,NE,45,7.1,8.1,64,0.00,CLR,CLR,0.00,WeatherDisplay:10.37,2013-04-17 16:39:00,
2013-04-17 11:44:00,39.4,28.2,30.23,NE,45,7.2,8.1,64,0.00,CLR,CLR,0.00,WeatherDisplay:10.37,2013-04-17 16:44:00,
2013-04-17 11:49:00,39.4,28.2,30.23,ESE,112,7.3,12.1,64,0.00,CLR,CLR,0.00,WeatherDisplay:10.37,2013-04-17 16:49:00,
2013-04-17 11:54:00,39.4,28.6,30.23,ENE,68,5.8,8.5,65,0.00,CLR,CLR,0.00,WeatherDisplay:10.37,2013-04-17 16:54:00,
2013-04-17 11:59:00,39.4,28.2,30.23,ESE,112,7.0,8.1,64,0.00,CLR,CLR,0.00,WeatherDisplay:10.37,2013-04-17 16:59:00,
2013-04-17 12:05:00,39.6,28.4,30.22,East,90,11.6,16.1,64,0.00,CLR,CLR,0.00,WeatherDisplay:10.37,2013-04-17 17:05:00,
2013-04-17 12:10:00,39.0,27.9,30.22,ESE,112,4.7,11.8,64,0.00,CLR,CLR,0.00,WeatherDisplay:10.37,2013-04-17 17:10:00,
2013-04-17 12:15:00,39.0,28.2,30.22,ESE,112,5.8,8.1,65,0.00,CLR,CLR,0.00,WeatherDisplay:10.37,2013-04-17 17:15:00,
2013-04-17 12:20:00,39.0,28.2,30.21,East,90,6.7,10.4,65,0.00,CLR,CLR,0.00,WeatherDisplay:10.37,2013-04-17 17:20:00,
2013-04-17 12:25:00,39.4,28.6,30.20,East,90,8.2,8.5,65,0.00,CLR,CLR,0.00,WeatherDisplay:10.37,2013-04-17 17:25:00,
2013-04-17 12:30:00,39.0,28.2,30.21,ENE,68,8.8,12.7,65,0.00,CLR,CLR,0.00,WeatherDisplay:10.37,2013-04-17 17:30:00,
2013-04-17 12:35:00,39.0,28.2,30.19,ESE,112,11.6,13.8,65,0.00,CLR,CLR,0.00,WeatherDisplay:10.37,2013-04-17 17:35:00,
2013-04-17 12:40:00,38.8,28.4,30.18,East,90,8.4,13.8,66,0.00,CLR,CLR,0.00,WeatherDisplay:10.37,2013-04-17 17:40:00,
2013-04-17 12:46:00,38.8,28.4,30.18,East,90,10.6,13.8,66,0.00,CLR,CLR,0.00,WeatherDisplay:10.37,2013-04-17 17:46:00,
2013-04-17 12:51:00,38.8,28.4,30.18,ENE,68,9.0,13.8,66,0.00,CLR,CLR,0.00,WeatherDisplay:10.37,2013-04-17 17:51:00,
2013-04-17 12:56:00,38.8,28.4,30.18,East,90,6.0,11.5,66,0.00,CLR,CLR,0.00,WeatherDisplay:10.37,2013-04-17 17:56:00,
2013-04-17 13:01:00,39.4,29.0,30.18,ESE,112,8.5,10.4,66,0.00,CLR,CLR,0.00,WeatherDisplay:10.37,2013-04-17 18:01:00,
2013-04-17 13:07:00,39.4,29.0,30.17,East,90,8.8,12.7,66,0.00,CLR,CLR,0.00,WeatherDisplay:10.37,2013-04-17 18:07:00,
2013-04-17 13:12:00,39.4,29.0,30.16,NNE,22,6.9,9.2,66,0.00,CLR,CLR,0.00,WeatherDisplay:10.37,2013-04-17 18:12:00,
2013-04-17 13:17:00,39.4,29.0,30.16,ESE,112,8.9,13.4,66,0.00,CLR,CLR,0.00,WeatherDisplay:10.37,2013-04-17 18:17:00,
2013-04-17 13:22:00,39.2,28.8,30.17,ENE,68,8.5,13.0,66,0.00,CLR,CLR,0.00,WeatherDisplay:10.37,2013-04-17 18:22:00,
2013-04-17 13:27:00,39.4,29.0,30.16,ENE,68,9.3,11.5,66,0.00,CLR,CLR,0.00,WeatherDisplay:10.37,2013-04-17 18:27:00,
2013-04-17 13:32:00,39.7,29.3,30.16,NNE,22,8.0,11.5,66,0.00,CLR,CLR,0.00,WeatherDisplay:10.37,2013-04-17 18:32:00,
2013-04-17 13:37:00,39.9,29.1,30.16,ESE,112,6.7,11.5,65,0.00,CLR,CLR,0.00,WeatherDisplay:10.37,2013-04-17 18:37:00,
2013-04-17 13:43:00,40.1,29.3,30.16,ENE,68,9.0,12.7,65,0.00,CLR,CLR,0.00,WeatherDisplay:10.37,2013-04-17 18:43:00,
2013-04-17 13:48:00,40.3,29.4,30.16,East,90,8.5,11.2,65,0.00,CLR,CLR,0.00,WeatherDisplay:10.37,2013-04-17 18:48:00,
2013-04-17 13:53:00,40.5,29.6,30.15,ENE,68,7.2,10.5,65,0.00,CLR,CLR,0.00,WeatherDisplay:10.37,2013-04-17 18:53:00,
2013-04-17 13:59:00,40.6,29.8,30.14,ENE,68,10.7,15.0,65,0.00,CLR,CLR,0.00,WeatherDisplay:10.37,2013-04-17 18:59:00,
2013-04-17 14:04:00,40.8,30.0,30.14,East,90,9.6,12.3,65,0.00,CLR,CLR,0.00,WeatherDisplay:10.37,2013-04-17 19:04:00,
2013-04-17 14:09:00,41.4,30.1,30.14,ENE,68,7.6,10.4,64,0.00,CLR,CLR,0.00,WeatherDisplay:10.37,2013-04-17 19:09:00,
2013-04-17 14:14:00,41.4,29.7,30.13,NW,315,6.2,11.5,63,0.00,CLR,CLR,0.00,WeatherDisplay:10.37,2013-04-17 19:14:00,
2013-04-17 14:19:00,41.0,29.7,30.13,East,90,10.0,11.5,64,0.00,CLR,CLR,0.00,WeatherDisplay:10.37,2013-04-17 19:19:00,
2013-04-17 14:24:00,41.2,29.9,30.14,East,90,5.2,8.7,64,0.00,CLR,CLR,0.00,WeatherDisplay:10.37,2013-04-17 19:24:00,
2013-04-17 14:30:00,41.2,29.5,30.13,NNE,22,7.2,9.2,63,0.00,CLR,CLR,0.00,WeatherDisplay:10.37,2013-04-17 19:30:00,
2013-04-17 14:35:00,41.2,29.9,30.12,East,90,7.2,12.7,64,0.00,CLR,CLR,0.00,WeatherDisplay:10.37,2013-04-17 19:35:00,
2013-04-17 14:40:00,41.4,30.1,30.12,ESE,112,7.7,10.4,64,0.00,CLR,CLR,0.00,WeatherDisplay:10.37,2013-04-17 19:40:00,
2013-04-17 14:45:00,41.5,29.9,30.12,NE,45,4.1,8.1,63,0.00,CLR,CLR,0.00,WeatherDisplay:10.37,2013-04-17 19:45:00,
2013-04-17 14:50:00,41.5,29.9,30.13,ESE,112,4.8,6.9,63,0.00,CLR,CLR,0.00,WeatherDisplay:10.37,2013-04-17 19:50:00,
2013-04-17 14:56:00,41.7,30.0,30.13,NE,45,8.6,11.5,63,0.00,CLR,CLR,0.00,WeatherDisplay:10.37,2013-04-17 19:56:00,
2013-04-17 15:01:00,41.5,29.9,30.13,NE,45,6.2,8.3,63,0.00,CLR,CLR,0.00,WeatherDisplay:10.37,2013-04-17 20:01:00,
2013-04-17 15:06:00,41.5,29.9,30.12,ENE,68,6.5,8.1,63,0.00,CLR,CLR,0.00,WeatherDisplay:10.37,2013-04-17 20:06:00,
2013-04-17 15:11:00,41.5,29.9,30.11,ENE,68,8.5,12.7,63,0.00,CLR,CLR,0.00,WeatherDisplay:10.37,2013-04-17 20:11:00,
2013-04-17 15:16:00,41.5,29.9,30.10,North,0,4.0,5.8,63,0.00,CLR,CLR,0.00,WeatherDisplay:10.37,2013-04-17 20:16:00,
2013-04-17 15:21:00,41.9,30.2,30.10,NE,45,5.8,7.6,63,0.00,CLR,CLR,0.00,WeatherDisplay:10.37,2013-04-17 20:21:00,
2013-04-17 15:26:00,41.9,30.2,30.10,NE,45,6.7,11.5,63,0.00,CLR,CLR,0.00,WeatherDisplay:10.37,2013-04-17 20:26:00,
2013-04-17 15:31:00,42.1,30.4,30.11,ENE,68,7.9,11.5,63,0.00,CLR,CLR,0.00,WeatherDisplay:10.37,2013-04-17 20:31:00,
2013-04-17 15:36:00,42.6,30.9,30.11,East,90,8.0,11.5,63,0.00,CLR,CLR,0.00,WeatherDisplay:10.37,2013-04-17 20:36:00,
2013-04-17 15:42:00,42.6,30.5,30.11,ENE,68,8.6,12.7,62,0.00,CLR,CLR,0.00,WeatherDisplay:10.37,2013-04-17 20:42:00,
2013-04-17 15:47:00,42.6,30.5,30.10,NNE,22,6.4,8.1,62,0.00,CLR,CLR,0.00,WeatherDisplay:10.37,2013-04-17 20:47:00,
2013-04-17 15:52:00,42.6,30.5,30.10,East,90,5.6,11.5,62,0.00,CLR,CLR,0.00,WeatherDisplay:10.37,2013-04-17 20:52:00,
2013-04-17 15:57:00,42.6,30.5,30.10,ENE,68,8.4,10.4,62,0.00,CLR,CLR,0.00,WeatherDisplay:10.37,2013-04-17 20:57:00,
2013-04-17 16:02:00,42.6,30.1,30.10,NE,45,7.0,10.4,61,0.00,CLR,CLR,0.00,WeatherDisplay:10.37,2013-04-17 21:02:00,
2013-04-17 16:07:00,42.6,30.5,30.09,East,90,6.4,10.4,62,0.00,CLR,CLR,0.00,WeatherDisplay:10.37,2013-04-17 21:07:00,
2013-04-17 16:12:00,42.4,30.3,30.09,East,90,6.2,8.1,62,0.00,CLR,CLR,0.00,WeatherDisplay:10.37,2013-04-17 21:12:00,
2013-04-17 16:17:00,42.1,30.0,30.09,ESE,112,9.8,13.8,62,0.00,CLR,CLR,0.00,WeatherDisplay:10.37,2013-04-17 21:17:00,
2013-04-17 16:23:00,42.1,30.0,30.09,NNE,22,8.5,11.5,62,0.00,CLR,CLR,0.00,WeatherDisplay:10.37,2013-04-17 21:23:00,
2013-04-17 16:28:00,41.9,29.8,30.09,East,90,5.3,8.1,62,0.00,CLR,CLR,0.00,WeatherDisplay:10.37,2013-04-17 21:28:00,
2013-04-17 16:33:00,41.7,29.6,30.09,SE,135,3.9,6.9,62,0.00,CLR,CLR,0.00,WeatherDisplay:10.37,2013-04-17 21:33:00,
2013-04-17 16:38:00,41.5,29.9,30.09,ENE,68,6.8,10.4,63,0.00,CLR,CLR,0.00,WeatherDisplay:10.37,2013-04-17 21:38:00,
2013-04-17 16:43:00,41.2,29.5,30.08,NE,45,3.8,4.6,63,0.00,CLR,CLR,0.00,WeatherDisplay:10.37,2013-04-17 21:43:00,
2013-04-17 16:48:00,40.8,29.2,30.08,SE,135,6.4,10.4,63,0.00,CLR,CLR,0.00,WeatherDisplay:10.37,2013-04-17 21:48:00,
2013-04-17 16:53:00,40.3,29.1,30.08,ENE,68,5.4,9.2,64,0.00,CLR,CLR,0.00,WeatherDisplay:10.37,2013-04-17 21:53:00,
2013-04-17 16:58:00,40.1,28.9,30.08,East,90,5.4,6.9,64,0.00,CLR,CLR,0.00,WeatherDisplay:10.37,2013-04-17 21:58:00,
2013-04-17 17:04:00,40.3,29.4,30.08,NE,45,7.5,8.9,65,0.00,CLR,CLR,0.00,WeatherDisplay:10.37,2013-04-17 22:04:00,
2013-04-17 17:09:00,39.9,29.1,30.08,ENE,68,5.6,9.2,65,0.00,CLR,CLR,0.00,WeatherDisplay:10.37,2013-04-17 22:09:00,
2013-04-17 17:14:00,39.9,29.1,30.07,ESE,112,4.8,9.2,65,0.00,CLR,CLR,0.00,WeatherDisplay:10.37,2013-04-17 22:14:00,
2013-04-17 17:19:00,39.7,29.3,30.07,NE,45,8.1,9.2,66,0.00,CLR,CLR,0.00,WeatherDisplay:10.37,2013-04-17 22:19:00,
2013-04-17 17:25:00,39.7,29.3,30.08,ENE,68,6.8,10.4,66,0.00,CLR,CLR,0.00,WeatherDisplay:10.37,2013-04-17 22:25:00,
2013-04-17 17:30:00,39.7,29.3,30.08,ESE,112,4.8,9.2,66,0.00,CLR,CLR,0.00,WeatherDisplay:10.37,2013-04-17 22:30:00,
2013-04-17 17:35:00,39.7,29.3,30.07,ENE,68,10.7,11.5,66,0.00,CLR,CLR,0.00,WeatherDisplay:10.37,2013-04-17 22:35:00,
2013-04-17 17:40:00,39.6,29.1,30.07,NE,45,6.3,9.8,66,0.00,CLR,CLR,0.00,WeatherDisplay:10.37,2013-04-17 22:40:00,
2013-04-17 17:45:00,39.6,29.5,30.06,NE,45,5.1,6.7,67,0.00,CLR,CLR,0.00,WeatherDisplay:10.37,2013-04-17 22:45:00,
2013-04-17 17:51:00,39.6,29.5,30.05,NE,45,4.9,6.9,67,0.00,CLR,CLR,0.00,WeatherDisplay:10.37,2013-04-17 22:51:00,
2013-04-17 17:56:00,39.7,29.7,30.04,NNE,22,7.0,9.2,67,0.00,CLR,CLR,0.00,WeatherDisplay:10.37,2013-04-17 22:56:00,
2013-04-17 18:01:00,39.6,29.5,30.05,North,0,3.6,4.6,67,0.00,CLR,CLR,0.00,WeatherDisplay:10.37,2013-04-17 23:01:00,
2013-04-17 18:06:00,39.4,29.7,30.05,ENE,68,4.0,6.9,68,0.00,CLR,CLR,0.00,WeatherDisplay:10.37,2013-04-17 23:06:00,
2013-04-17 18:12:00,39.0,29.3,30.05,NE,45,3.9,5.8,68,0.00,CLR,CLR,0.00,WeatherDisplay:10.37,2013-04-17 23:12:00,
2013-04-17 18:17:00,38.8,29.5,30.05,East,90,5.2,9.2,69,0.00,CLR,CLR,0.00,WeatherDisplay:10.37,2013-04-17 23:17:00,
2013-04-17 18:22:00,38.8,29.5,30.05,NE,45,5.5,9.2,69,0.00,CLR,CLR,0.00,WeatherDisplay:10.37,2013-04-17 23:22:00,
2013-04-17 18:27:00,38.5,29.2,30.05,NE,45,6.0,8.1,69,0.00,CLR,CLR,0.00,WeatherDisplay:10.37,2013-04-17 23:27:00,
2013-04-17 18:32:00,38.5,29.2,30.05,NNE,22,7.2,10.4,69,0.00,CLR,CLR,0.00,WeatherDisplay:10.37,2013-04-17 23:32:00,
2013-04-17 18:38:00,38.1,28.8,30.05,NNE,22,6.8,9.2,69,0.00,CLR,CLR,0.00,WeatherDisplay:10.37,2013-04-17 23:38:00,
2013-04-17 18:43:00,38.1,29.2,30.05,NE,45,5.0,7.6,70,0.00,CLR,CLR,0.00,WeatherDisplay:10.37,2013-04-17 23:43:00,
2013-04-17 18:48:00,38.1,29.2,30.05,North,0,6.8,10.4,70,0.00,CLR,CLR,0.00,WeatherDisplay:10.37,2013-04-17 23:48:00,
2013-04-17 18:53:00,37.9,29.4,30.05,NE,45,5.9,10.4,71,0.00,CLR,CLR,0.00,WeatherDisplay:10.37,2013-04-17 23:53:00,
2013-04-17 18:58:00,37.6,29.0,30.05,NNE,22,4.4,11.5,71,0.00,CLR,CLR,0.00,WeatherDisplay:10.37,2013-04-17 23:58:00,
2013-04-17 19:04:00,37.2,29.0,30.04,North,0,5.2,10.4,72,0.00,CLR,CLR,0.00,WeatherDisplay:10.37,2013-04-18 00:04:00,
2013-04-17 19:09:00,36.9,29.0,30.04,NE,45,5.9,11.8,73,0.00,CLR,CLR,0.00,WeatherDisplay:10.37,2013-04-18 00:09:00,
2013-04-17 19:14:00,36.5,29.0,30.04,North,0,7.6,8.1,74,0.00,CLR,CLR,0.00,WeatherDisplay:10.37,2013-04-18 00:14:00,
2013-04-17 19:19:00,36.1,29.0,30.03,NNE,22,8.7,12.7,75,0.00,CLR,CLR,0.00,WeatherDisplay:10.37,2013-04-18 00:19:00,
2013-04-17 19:24:00,35.8,29.0,30.03,NE,45,6.7,8.1,76,0.00,CLR,CLR,0.00,WeatherDisplay:10.37,2013-04-18 00:24:00,
2013-04-17 19:29:00,35.2,28.8,30.03,North,0,6.6,10.1,77,0.00,CLR,CLR,0.00,WeatherDisplay:10.37,2013-04-18 00:29:00,
2013-04-17 19:35:00,34.9,28.7,30.03,NNE,22,6.8,8.1,78,0.00,CLR,CLR,0.00,WeatherDisplay:10.37,2013-04-18 00:35:00,
2013-04-17 19:40:00,34.7,29.2,30.03,NE,45,9.8,11.5,80,0.00,CLR,CLR,0.00,WeatherDisplay:10.37,2013-04-18 00:40:00,
2013-04-17 19:45:00,34.5,29.0,30.03,NNE,22,5.8,10.4,80,0.00,CLR,CLR,0.00,WeatherDisplay:10.37,2013-04-18 00:45:00,
2013-04-17 19:50:00,34.3,29.1,30.03,North,0,6.5,8.5,81,0.00,CLR,CLR,0.00,WeatherDisplay:10.37,2013-04-18 00:50:00,
2013-04-17 19:55:00,34.2,28.9,30.04,North,0,4.8,8.1,81,0.00,CLR,CLR,0.00,WeatherDisplay:10.37,2013-04-18 00:55:00,
2013-04-17 20:00:00,34.0,28.8,30.03,North,0,5.5,9.2,81,0.00,CLR,CLR,0.00,WeatherDisplay:10.37,2013-04-18 01:00:00,
2013-04-17 20:05:00,34.0,29.1,30.03,NE,45,5.4,10.4,82,0.00,CLR,CLR,0.00,WeatherDisplay:10.37,2013-04-18 01:05:00,
2013-04-17 20:10:00,33.8,28.9,30.03,NNE,22,8.0,11.5,82,0.00,CLR,CLR,0.00,WeatherDisplay:10.37,2013-04-18 01:10:00,
2013-04-17 20:15:00,33.6,29.0,30.03,NE,45,7.5,10.4,83,0.00,CLR,CLR,0.00,WeatherDisplay:10.37,2013-04-18 01:15:00,
2013-04-17 20:21:00,33.6,29.0,30.03,North,0,5.2,10.4,83,0.00,CLR,CLR,0.00,WeatherDisplay:10.37,2013-04-18 01:21:00,
2013-04-17 20:26:00,33.6,29.3,30.03,NNE,22,5.7,9.2,84,0.00,CLR,CLR,0.00,WeatherDisplay:10.37,2013-04-18 01:26:00,
2013-04-17 20:31:00,33.4,29.1,30.04,North,0,7.0,10.4,84,0.00,CLR,CLR,0.00,WeatherDisplay:10.37,2013-04-18 01:31:00,
2013-04-17 20:36:00,33.3,28.9,30.04,North,0,7.3,9.2,84,0.00,CLR,CLR,0.00,WeatherDisplay:10.37,2013-04-18 01:36:00,
2013-04-17 20:41:00,33.1,29.1,30.03,North,0,6.4,10.4,85,0.00,CLR,CLR,0.00,WeatherDisplay:10.37,2013-04-18 01:41:00,
2013-04-17 20:47:00,32.9,28.9,30.04,NNE,22,6.7,10.4,85,0.00,CLR,CLR,0.00,WeatherDisplay:10.37,2013-04-18 01:47:00,
2013-04-17 20:52:00,32.9,28.9,30.04,NNE,22,5.7,9.2,85,0.00,CLR,CLR,0.00,WeatherDisplay:10.37,2013-04-18 01:52:00,
2013-04-17 20:57:00,32.7,29.0,30.04,NE,45,6.1,9.2,86,0.00,CLR,CLR,0.00,WeatherDisplay:10.37,2013-04-18 01:57:00,
2013-04-17 21:02:00,32.7,29.0,30.04,NNE,22,6.8,9.2,86,0.00,CLR,CLR,0.00,WeatherDisplay:10.37,2013-04-18 02:02:00,
2013-04-17 21:07:00,32.7,29.0,30.04,NNE,22,6.5,10.5,86,0.00,CLR,CLR,0.00,WeatherDisplay:10.37,2013-04-18 02:07:00,
2013-04-17 21:12:00,32.7,29.3,30.04,NNW,338,3.9,4.6,87,0.00,CLR,CLR,0.00,WeatherDisplay:10.37,2013-04-18 02:12:00,
2013-04-17 21:17:00,32.5,29.1,30.05,NNE,22,4.1,6.7,87,0.00,CLR,CLR,0.00,WeatherDisplay:10.37,2013-04-18 02:17:00,
2013-04-17 21:22:00,32.5,29.1,30.05,North,0,6.0,8.1,87,0.00,CLR,CLR,0.00,WeatherDisplay:10.37,2013-04-18 02:22:00,
2013-04-17 21:27:00,32.5,29.1,30.06,North,0,4.8,6.9,87,0.00,CLR,CLR,0.00,WeatherDisplay:10.37,2013-04-18 02:27:00,
2013-04-17 21:32:00,32.5,29.1,30.06,North,0,3.6,8.1,87,0.00,CLR,CLR,0.00,WeatherDisplay:10.37,2013-04-18 02:32:00,
2013-04-17 21:37:00,32.5,29.1,30.05,NNE,22,5.1,6.9,87,0.00,CLR,CLR,0.00,WeatherDisplay:10.37,2013-04-18 02:37:00,
2013-04-17 21:43:00,32.4,28.9,30.05,NW,315,7.2,10.4,87,0.00,CLR,CLR,0.00,WeatherDisplay:10.37,2013-04-18 02:43:00,
2013-04-17 21:48:00,32.2,28.7,30.05,North,0,5.5,8.1,87,0.00,CLR,CLR,0.00,WeatherDisplay:10.37,2013-04-18 02:48:00,
2013-04-17 21:53:00,32.2,29.0,30.05,North,0,7.9,9.2,88,0.00,CLR,CLR,0.00,WeatherDisplay:10.37,2013-04-18 02:53:00,
2013-04-17 21:58:00,32.2,29.0,30.03,North,0,5.2,9.2,88,0.00,CLR,CLR,0.00,WeatherDisplay:10.37,2013-04-18 02:58:00,
2013-04-17 22:03:00,32.0,28.8,30.02,NNE,22,8.2,10.4,88,0.00,CLR,CLR,0.00,WeatherDisplay:10.37,2013-04-18 03:03:00,
2013-04-17 22:08:00,31.8,28.7,30.03,North,0,7.2,10.4,88,0.00,CLR,CLR,0.00,WeatherDisplay:10.37,2013-04-18 03:08:00,
2013-04-17 22:13:00,31.8,28.7,30.02,North,0,7.2,9.2,88,0.00,CLR,CLR,0.00,WeatherDisplay:10.37,2013-04-18 03:13:00,
2013-04-17 22:19:00,31.8,28.7,30.01,North,0,8.5,10.4,88,0.00,CLR,CLR,0.00,WeatherDisplay:10.37,2013-04-18 03:19:00,
2013-04-17 22:24:00,31.8,28.9,30.00,North,0,8.2,9.2,89,0.00,CLR,CLR,0.00,WeatherDisplay:10.37,2013-04-18 03:24:00,
2013-04-17 22:29:00,31.8,28.9,30.01,North,0,6.7,9.2,89,0.00,CLR,CLR,0.00,WeatherDisplay:10.37,2013-04-18 03:29:00,
2013-04-17 22:34:00,31.6,28.8,30.00,NNW,338,9.2,10.4,89,0.00,CLR,CLR,0.00,WeatherDisplay:10.37,2013-04-18 03:34:00,
2013-04-17 22:39:00,31.6,28.8,30.01,NE,45,6.3,9.2,89,0.00,CLR,CLR,0.00,WeatherDisplay:10.37,2013-04-18 03:39:00,
2013-04-17 22:45:00,31.6,28.8,30.01,NE,45,4.8,8.1,89,0.00,CLR,CLR,0.00,WeatherDisplay:10.37,2013-04-18 03:45:00,
2013-04-17 22:50:00,31.6,28.8,30.01,NE,45,7.2,10.4,89,0.00,CLR,CLR,0.00,WeatherDisplay:10.37,2013-04-18 03:50:00,
2013-04-17 22:55:00,31.6,28.8,30.01,NE,45,5.8,5.8,89,0.00,CLR,CLR,0.00,WeatherDisplay:10.37,2013-04-18 03:55:00,
2013-04-17 23:00:00,31.6,28.8,30.01,NE,45,6.7,11.5,89,0.00,CLR,CLR,0.00,WeatherDisplay:10.37,2013-04-18 04:00:00,
2013-04-17 23:01:00,31.6,28.8,30.01,NE,45,7.6,11.6,89,0.00,CLR,CLR,0.00,WeatherDisplay:10.37,2013-04-18 04:01:00,
2013-04-17 23:02:00,31.6,28.8,30.01,NE,45,6.7,11.5,89,0.00,CLR,CLR,0.00,WeatherDisplay:10.37,2013-04-18 04:02:00,
2013-04-17 23:04:00,31.6,28.8,30.01,NE,45,8.4,10.4,89,0.00,CLR,CLR,0.00,WeatherDisplay:10.37,2013-04-18 04:04:00,
2013-04-17 23:09:00,31.6,28.8,30.01,NE,45,8.2,9.2,89,0.00,CLR,CLR,0.00,WeatherDisplay:10.37,2013-04-18 04:09:00,
2013-04-17 23:14:00,31.6,28.8,30.00,NE,45,5.5,10.4,89,0.00,CLR,CLR,0.00,WeatherDisplay:10.37,2013-04-18 04:14:00,
2013-04-17 23:19:00,31.6,28.8,30.00,NE,45,7.2,10.4,89,0.00,CLR,CLR,0.00,WeatherDisplay:10.37,2013-04-18 04:19:00,
2013-04-17 23:24:00,31.6,28.8,29.99,NE,45,8.6,11.5,89,0.00,CLR,CLR,0.00,WeatherDisplay:10.37,2013-04-18 04:24:00,
2013-04-17 23:30:00,31.6,28.8,29.99,NE,45,7.0,10.4,89,0.00,CLR,CLR,0.00,WeatherDisplay:10.37,2013-04-18 04:30:00,
2013-04-17 23:35:00,31.5,28.6,29.99,NE,45,7.4,10.4,89,0.00,CLR,CLR,0.00,WeatherDisplay:10.37,2013-04-18 04:35:00,
2013-04-17 23:40:00,31.6,28.8,29.99,NE,45,5.9,8.1,89,0.00,CLR,CLR,0.00,WeatherDisplay:10.37,2013-04-18 04:40:00,
2013-04-17 23:45:00,31.6,28.8,29.98,NE,45,6.7,8.1,89,0.00,CLR,CLR,0.00,WeatherDisplay:10.37,2013-04-18 04:45:00,
2013-04-17 23:50:00,31.6,28.8,29.99,NE,45,5.2,8.1,89,0.00,CLR,CLR,0.00,WeatherDisplay:10.37,2013-04-18 04:50:00,
2013-04-17 23:55:00,31.6,28.8,29.99,NE,45,5.1,5.8,89,0.00,CLR,CLR,0.00,WeatherDisplay:10.37,2013-04-18 04:55:00,